Time,TemperatureF,DewpointF,PressureIn,WindDirection,WindDirectionDegrees,WindSpeedMPH,WindSpeedGustMPH,Humidity,HourlyPrecipIn,Conditions,Clouds,dailyrainin,SoftwareType,DateUTC
2013-12-09 00:04:00,26.4,18.0,30.49,NNW,332,1.0,3.0,70,0.00,,OVC075,0.00,VWS V14.00,2013-12-09 05:04:00,
2013-12-09 00:05:00,26.4,18.0,30.48,NNW,332,0.0,2.0,70,0.00,,OVC075,0.00,VWS V14.00,2013-12-09 05:05:00,
2013-12-09 00:10:00,26.4,18.0,30.47,NNW,332,0.0,2.0,70,0.00,,OVC075,0.00,VWS V14.00,2013-12-09 05:10:00,
2013-12-09 00:15:00,26.4,18.0,30.48,NNW,332,0.0,2.0,70,0.00,,OVC075,0.00,VWS V14.00,2013-12-09 05:15:00,
2013-12-09 00:20:00,26.2,17.8,30.49,NNW,332,1.0,2.0,70,0.00,,OVC075,0.00,VWS V14.00,2013-12-09 05:20:00,
2013-12-09 00:25:00,26.2,17.8,30.48,NNW,332,1.0,2.0,70,0.00,,OVC075,0.00,VWS V14.00,2013-12-09 05:25:00,
2013-12-09 00:30:00,26.2,17.8,30.48,NNW,332,1.0,2.0,70,0.00,,OVC075,0.00,VWS V14.00,2013-12-09 05:30:00,
2013-12-09 00:35:00,26.2,17.8,30.47,NNW,332,1.0,2.0,70,0.00,,OVC075,0.00,VWS V14.00,2013-12-09 05:35:00,
2013-12-09 00:40:00,26.1,17.3,30.48,NNW,332,1.0,4.0,69,0.00,,OVC075,0.00,VWS V14.00,2013-12-09 05:40:00,
2013-12-09 00:45:00,26.1,17.7,30.46,NNW,332,0.0,4.0,70,0.00,,OVC075,0.00,VWS V14.00,2013-12-09 05:45:00,
2013-12-09 00:50:00,26.1,17.7,30.47,NNW,332,0.0,4.0,70,0.00,,OVC075,0.00,VWS V14.00,2013-12-09 05:50:00,
2013-12-09 00:55:00,26.1,17.7,30.47,NNW,332,1.0,4.0,70,0.00,,OVC075,0.00,VWS V14.00,2013-12-09 05:55:00,
2013-12-09 01:00:00,25.9,17.1,30.47,NNW,332,2.0,4.0,69,0.00,,OVC075,0.00,VWS V14.00,2013-12-09 06:00:00,
2013-12-09 01:05:00,25.9,17.5,30.46,NNW,332,1.0,3.0,70,0.00,,OVC040,0.00,VWS V14.00,2013-12-09 06:05:00,
2013-12-09 01:10:00,25.9,17.5,30.46,NNW,332,3.0,3.0,70,0.00,,OVC040,0.00,VWS V14.00,2013-12-09 06:10:00,
2013-12-09 01:15:00,25.8,17.0,30.45,NNW,332,0.0,3.0,69,0.00,,OVC040,0.00,VWS V14.00,2013-12-09 06:15:00,
2013-12-09 01:20:00,25.8,17.4,30.45,NNW,332,0.0,4.0,70,0.00,,OVC040,0.00,VWS V14.00,2013-12-09 06:20:00,
2013-12-09 01:25:00,25.5,17.8,30.45,NNW,340,3.0,5.0,72,0.00,,OVC040,0.00,VWS V14.00,2013-12-09 06:25:00,
2013-12-09 01:30:00,25.5,17.8,30.45,NNW,340,2.0,5.0,72,0.00,,OVC040,0.00,VWS V14.00,2013-12-09 06:30:00,
2013-12-09 01:35:00,25.3,17.9,30.45,ENE,59,2.0,6.0,73,0.00,,OVC040,0.00,VWS V14.00,2013-12-09 06:35:00,
2013-12-09 01:40:00,25.2,18.1,30.45,ENE,59,3.0,6.0,74,0.00,,OVC040,0.00,VWS V14.00,2013-12-09 06:40:00,
2013-12-09 01:45:00,25.2,18.4,30.45,ENE,59,2.0,6.0,75,0.00,,OVC040,0.00,VWS V14.00,2013-12-09 06:45:00,
2013-12-09 01:50:00,25.1,18.3,30.44,ENE,59,2.0,6.0,75,0.00,,OVC040,0.00,VWS V14.00,2013-12-09 06:50:00,
2013-12-09 01:55:00,25.0,18.5,30.44,ENE,59,2.0,6.0,76,0.00,,OVC040,0.00,VWS V14.00,2013-12-09 06:55:00,
2013-12-09 02:00:00,24.9,18.4,30.44,ENE,59,1.0,6.0,76,0.00,,OVC040,0.00,VWS V14.00,2013-12-09 07:00:00,
2013-12-09 02:05:00,24.9,19.0,30.44,ENE,59,2.0,3.0,78,0.00,,,0.00,VWS V14.00,2013-12-09 07:05:00,
2013-12-09 02:10:00,24.7,18.8,30.44,ENE,59,2.0,4.0,78,0.00,,,0.00,VWS V14.00,2013-12-09 07:10:00,
2013-12-09 02:15:00,24.7,19.1,30.45,ENE,59,0.0,4.0,79,0.00,,,0.00,VWS V14.00,2013-12-09 07:15:00,
2013-12-09 02:20:00,24.7,19.4,30.44,ENE,59,2.0,4.0,80,0.00,,,0.00,VWS V14.00,2013-12-09 07:20:00,
2013-12-09 02:25:00,24.6,19.3,30.44,ENE,59,1.0,4.0,80,0.00,,,0.00,VWS V14.00,2013-12-09 07:25:00,
2013-12-09 02:30:00,24.6,19.9,30.44,ENE,59,1.0,4.0,82,0.00,,,0.00,VWS V14.00,2013-12-09 07:30:00,
2013-12-09 02:35:00,24.5,20.1,30.44,ENE,59,0.0,3.0,83,0.00,,,0.00,VWS V14.00,2013-12-09 07:35:00,
2013-12-09 02:40:00,24.3,19.9,30.43,ENE,59,4.0,5.0,83,0.00,,,0.00,VWS V14.00,2013-12-09 07:40:00,
2013-12-09 02:44:00,24.1,20.2,30.42,ENE,59,1.0,5.0,85,0.00,,,0.00,VWS V14.00,2013-12-09 07:44:00,
2013-12-09 02:50:00,24.1,20.5,30.43,ENE,59,1.0,5.0,86,0.00,,,0.00,VWS V14.00,2013-12-09 07:50:00,
2013-12-09 02:54:00,24.0,20.7,30.43,ENE,58,2.0,5.0,87,0.00,,,0.00,VWS V14.00,2013-12-09 07:54:00,
2013-12-09 02:59:00,23.8,20.5,30.42,ENE,58,1.0,5.0,87,0.00,,,0.00,VWS V14.00,2013-12-09 07:59:00,
2013-12-09 03:04:00,23.7,20.7,30.42,ENE,58,1.0,5.0,88,0.00,,,0.00,VWS V14.00,2013-12-09 08:04:00,
2013-12-09 03:09:00,23.7,20.9,30.42,ENE,58,1.0,5.0,89,0.00,,,0.00,VWS V14.00,2013-12-09 08:09:00,
2013-12-09 03:14:00,23.7,21.2,30.42,ENE,58,0.0,5.0,90,0.00,,,0.00,VWS V14.00,2013-12-09 08:14:00,
2013-12-09 03:19:00,23.7,21.2,30.41,ENE,57,3.0,5.0,90,0.00,,,0.00,VWS V14.00,2013-12-09 08:19:00,
2013-12-09 03:24:00,23.5,21.0,30.42,ENE,57,1.0,5.0,90,0.00,,,0.00,VWS V14.00,2013-12-09 08:24:00,
2013-12-09 03:29:00,23.5,21.3,30.41,NE,56,2.0,5.0,91,0.00,,,0.00,VWS V14.00,2013-12-09 08:29:00,
2013-12-09 03:34:00,23.5,21.5,30.40,NE,56,1.0,3.0,92,0.00,,,0.00,VWS V14.00,2013-12-09 08:34:00,
2013-12-09 03:39:00,23.5,21.5,30.40,NE,56,1.0,3.0,92,0.00,,,0.00,VWS V14.00,2013-12-09 08:39:00,
2013-12-09 03:44:00,23.5,21.5,30.39,NE,56,0.0,3.0,92,0.00,,,0.00,VWS V14.00,2013-12-09 08:44:00,
2013-12-09 03:49:00,23.6,21.6,30.39,ENE,57,2.0,4.0,92,0.00,,,0.00,VWS V14.00,2013-12-09 08:49:00,
2013-12-09 03:54:00,23.5,21.8,30.39,ENE,57,1.0,4.0,93,0.00,,,0.00,VWS V14.00,2013-12-09 08:54:00,
2013-12-09 03:56:00,23.6,21.9,30.39,ENE,57,2.0,4.0,93,0.00,,,0.00,VWS V14.00,2013-12-09 08:56:00,
2013-12-09 04:01:00,23.6,22.1,30.39,ENE,57,2.0,3.0,94,0.00,,,0.00,VWS V14.00,2013-12-09 09:01:00,
2013-12-09 04:06:00,23.5,22.0,30.40,NE,56,1.0,4.0,94,0.00,,,0.00,VWS V14.00,2013-12-09 09:06:00,
2013-12-09 04:11:00,23.6,22.1,30.40,NE,56,2.0,4.0,94,0.00,,,0.00,VWS V14.00,2013-12-09 09:11:00,
2013-12-09 04:16:00,23.6,22.1,30.39,NE,56,2.0,4.0,94,0.00,,,0.00,VWS V14.00,2013-12-09 09:16:00,
2013-12-09 04:21:00,23.5,22.0,30.39,NE,56,0.0,4.0,94,0.00,,,0.00,VWS V14.00,2013-12-09 09:21:00,
2013-12-09 04:26:00,23.6,22.1,30.39,NE,56,0.0,4.0,94,0.00,,,0.00,VWS V14.00,2013-12-09 09:26:00,
2013-12-09 04:31:00,23.7,22.5,30.38,NE,56,1.0,2.0,95,0.00,,,0.00,VWS V14.00,2013-12-09 09:31:00,
2013-12-09 04:36:00,23.6,22.4,30.38,NE,56,1.0,5.0,95,0.00,,,0.00,VWS V14.00,2013-12-09 09:36:00,
2013-12-09 04:41:00,23.5,22.3,30.38,NE,56,2.0,5.0,95,0.00,,,0.00,VWS V14.00,2013-12-09 09:41:00,
2013-12-09 04:46:00,23.7,22.5,30.37,NE,56,2.0,5.0,95,0.00,,,0.00,VWS V14.00,2013-12-09 09:46:00,
2013-12-09 04:51:00,23.7,22.5,30.36,NE,56,1.0,5.0,95,0.00,,,0.00,VWS V14.00,2013-12-09 09:51:00,
2013-12-09 04:56:00,23.7,22.5,30.36,NE,56,1.0,5.0,95,0.00,,,0.00,VWS V14.00,2013-12-09 09:56:00,
2013-12-09 05:01:00,23.7,22.7,30.36,NE,56,3.0,3.0,96,0.00,,,0.00,VWS V14.00,2013-12-09 10:01:00,
2013-12-09 05:06:00,23.7,22.5,30.35,NE,56,0.0,3.0,95,0.00,,,0.00,VWS V14.00,2013-12-09 10:06:00,
2013-12-09 05:11:00,23.7,22.7,30.35,NE,56,1.0,3.0,96,0.00,,,0.00,VWS V14.00,2013-12-09 10:11:00,
2013-12-09 05:16:00,23.9,22.9,30.35,NE,56,1.0,3.0,96,0.00,,,0.00,VWS V14.00,2013-12-09 10:16:00,
2013-12-09 05:21:00,23.8,22.8,30.34,NE,56,0.0,3.0,96,0.00,,,0.00,VWS V14.00,2013-12-09 10:21:00,
2013-12-09 05:26:00,23.9,22.9,30.34,NE,56,0.0,3.0,96,0.00,,,0.00,VWS V14.00,2013-12-09 10:26:00,
2013-12-09 05:31:00,23.9,22.9,30.34,NE,56,0.0,0.0,96,0.00,,,0.00,VWS V14.00,2013-12-09 10:31:00,
2013-12-09 05:36:00,23.8,22.8,30.33,NE,56,0.0,0.0,96,0.00,,,0.00,VWS V14.00,2013-12-09 10:36:00,
2013-12-09 05:41:00,24.0,23.3,30.33,NE,56,0.0,0.0,97,0.00,,,0.00,VWS V14.00,2013-12-09 10:41:00,
2013-12-09 05:46:00,24.0,23.3,30.33,NE,56,0.0,0.0,97,0.00,,,0.00,VWS V14.00,2013-12-09 10:46:00,
2013-12-09 05:51:00,24.0,23.3,30.33,NE,56,0.0,0.0,97,0.00,,,0.00,VWS V14.00,2013-12-09 10:51:00,
2013-12-09 05:56:00,24.0,23.0,30.32,NE,56,0.0,0.0,96,0.00,,,0.00,VWS V14.00,2013-12-09 10:56:00,
2013-12-09 06:00:00,24.1,23.4,30.32,NE,56,0.0,0.0,97,0.00,,,0.00,VWS V14.00,2013-12-09 11:00:00,
2013-12-09 06:05:00,24.1,23.6,30.32,NE,56,0.0,2.0,98,0.00,,,0.00,VWS V14.00,2013-12-09 11:05:00,
2013-12-09 06:10:00,24.3,23.6,30.31,NE,56,0.0,2.0,97,0.00,,,0.00,VWS V14.00,2013-12-09 11:10:00,
2013-12-09 06:15:00,24.3,23.8,30.31,NE,56,0.0,2.0,98,0.00,,,0.00,VWS V14.00,2013-12-09 11:15:00,
2013-12-09 06:20:00,24.5,24.0,30.32,NE,56,0.0,2.0,98,0.00,,,0.00,VWS V14.00,2013-12-09 11:20:00,
2013-12-09 06:25:00,24.4,23.9,30.31,NE,56,0.0,3.0,98,0.00,,,0.00,VWS V14.00,2013-12-09 11:25:00,
2013-12-09 06:30:00,24.4,23.9,30.31,NE,56,2.0,3.0,98,0.00,,,0.00,VWS V14.00,2013-12-09 11:30:00,
2013-12-09 06:35:00,24.3,23.8,30.31,NE,56,0.0,0.0,98,0.00,,,0.00,VWS V14.00,2013-12-09 11:35:00,
2013-12-09 06:40:00,24.3,23.8,30.30,NE,52,0.0,4.0,98,0.00,,,0.00,VWS V14.00,2013-12-09 11:40:00,
2013-12-09 06:45:00,24.3,24.1,30.30,NE,52,0.0,4.0,99,0.00,,,0.00,VWS V14.00,2013-12-09 11:45:00,
2013-12-09 06:50:00,24.5,24.3,30.31,NE,52,0.0,4.0,99,0.00,,,0.00,VWS V14.00,2013-12-09 11:50:00,
2013-12-09 06:55:00,24.6,24.4,30.30,NE,52,0.0,4.0,99,0.00,,,0.00,VWS V14.00,2013-12-09 11:55:00,
2013-12-09 07:00:00,24.7,24.5,30.30,NE,52,0.0,4.0,99,0.00,,,0.00,VWS V14.00,2013-12-09 12:00:00,
2013-12-09 07:05:00,24.7,24.2,30.29,NE,52,0.0,0.0,98,0.00,,,0.00,VWS V14.00,2013-12-09 12:05:00,
2013-12-09 07:10:00,24.7,24.5,30.29,NE,52,0.0,0.0,99,0.00,,,0.00,VWS V14.00,2013-12-09 12:10:00,
2013-12-09 07:15:00,24.7,24.5,30.27,NE,52,0.0,0.0,99,0.00,,,0.00,VWS V14.00,2013-12-09 12:15:00,
2013-12-09 07:20:00,24.8,24.3,30.27,NE,52,0.0,0.0,98,0.00,,,0.00,VWS V14.00,2013-12-09 12:20:00,
2013-12-09 07:25:00,24.6,24.1,30.27,NE,52,0.0,0.0,98,0.00,,,0.00,VWS V14.00,2013-12-09 12:25:00,
2013-12-09 07:30:00,24.6,24.4,30.25,NE,52,0.0,1.0,99,0.00,,,0.00,VWS V14.00,2013-12-09 12:30:00,
2013-12-09 07:35:00,24.6,24.1,30.25,NE,52,0.0,2.0,98,0.00,,,0.00,VWS V14.00,2013-12-09 12:35:00,
2013-12-09 07:40:00,24.6,24.4,30.24,NE,52,0.0,2.0,99,0.00,,,0.00,VWS V14.00,2013-12-09 12:40:00,
2013-12-09 07:45:00,24.6,24.4,30.26,NE,52,0.0,2.0,99,0.00,,,0.00,VWS V14.00,2013-12-09 12:45:00,
2013-12-09 07:50:00,24.6,24.6,30.25,NE,52,0.0,2.0,100,0.00,,,0.00,VWS V14.00,2013-12-09 12:50:00,
2013-12-09 07:55:00,24.9,24.7,30.24,NE,52,0.0,2.0,99,0.00,,,0.00,VWS V14.00,2013-12-09 12:55:00,
2013-12-09 08:00:00,25.0,25.0,30.24,NE,52,0.0,2.0,100,0.00,,,0.00,VWS V14.00,2013-12-09 13:00:00,
2013-12-09 08:05:00,25.0,24.8,30.24,NE,52,0.0,0.0,99,0.00,,,0.00,VWS V14.00,2013-12-09 13:05:00,
2013-12-09 08:10:00,25.3,25.1,30.23,NE,52,0.0,0.0,99,0.00,,,0.00,VWS V14.00,2013-12-09 13:10:00,
2013-12-09 08:15:00,25.5,25.5,30.24,NE,51,0.0,1.0,100,0.00,,,0.00,VWS V14.00,2013-12-09 13:15:00,
2013-12-09 08:20:00,25.6,25.4,30.23,NE,51,0.0,1.0,99,0.00,,,0.00,VWS V14.00,2013-12-09 13:20:00,
2013-12-09 08:25:00,25.8,25.8,30.23,NE,51,0.0,1.0,100,0.00,,,0.00,VWS V14.00,2013-12-09 13:25:00,
2013-12-09 08:30:00,25.9,25.9,30.23,NE,51,0.0,1.0,100,0.00,,,0.00,VWS V14.00,2013-12-09 13:30:00,
2013-12-09 08:35:00,26.2,26.2,30.23,NE,51,0.0,0.0,100,0.00,,,0.00,VWS V14.00,2013-12-09 13:35:00,
2013-12-09 08:40:00,26.5,26.5,30.23,NE,51,0.0,0.0,100,0.00,,,0.00,VWS V14.00,2013-12-09 13:40:00,
2013-12-09 08:45:00,26.5,26.5,30.23,NE,51,0.0,1.0,100,0.00,,,0.00,VWS V14.00,2013-12-09 13:45:00,
2013-12-09 08:50:00,26.7,26.7,30.22,NE,51,0.0,1.0,100,0.00,,,0.00,VWS V14.00,2013-12-09 13:50:00,
2013-12-09 08:55:00,26.8,26.8,30.22,NE,51,0.0,1.0,100,0.00,,,0.00,VWS V14.00,2013-12-09 13:55:00,
2013-12-09 09:00:00,27.0,27.0,30.21,NE,50,0.0,1.0,100,0.00,,,0.00,VWS V14.00,2013-12-09 14:00:00,
2013-12-09 09:05:00,27.1,27.1,30.21,NE,50,0.0,0.0,100,0.00,,,0.00,VWS V14.00,2013-12-09 14:05:00,
2013-12-09 09:09:00,27.3,27.3,30.21,NE,50,0.0,0.0,100,0.00,,,0.00,VWS V14.00,2013-12-09 14:09:00,
2013-12-09 09:14:00,27.4,27.4,30.21,NE,50,0.0,0.0,100,0.00,,,0.00,VWS V14.00,2013-12-09 14:14:00,
2013-12-09 09:19:00,27.6,27.6,30.19,NE,50,0.0,0.0,100,0.00,,,0.00,VWS V14.00,2013-12-09 14:19:00,
2013-12-09 09:24:00,27.7,27.7,30.19,NE,50,0.0,0.0,100,0.00,,,0.00,VWS V14.00,2013-12-09 14:24:00,
2013-12-09 09:29:00,28.0,28.0,30.18,NE,50,0.0,0.0,100,0.00,,,0.00,VWS V14.00,2013-12-09 14:29:00,
2013-12-09 09:34:00,28.2,28.2,30.19,NE,50,0.0,0.0,100,0.00,,,0.00,VWS V14.00,2013-12-09 14:34:00,
2013-12-09 09:39:00,28.2,28.2,30.19,NE,50,0.0,1.0,100,0.00,,,0.00,VWS V14.00,2013-12-09 14:39:00,
2013-12-09 09:44:00,28.3,28.3,30.19,NE,50,0.0,1.0,100,0.00,,,0.00,VWS V14.00,2013-12-09 14:44:00,
2013-12-09 09:49:00,28.3,28.3,30.20,NE,50,0.0,1.0,100,0.00,,,0.00,VWS V14.00,2013-12-09 14:49:00,
2013-12-09 09:54:00,28.4,28.4,30.19,NE,50,0.0,1.0,100,0.00,,,0.00,VWS V14.00,2013-12-09 14:54:00,
2013-12-09 09:59:00,28.6,28.6,30.21,NE,50,0.0,1.0,100,0.00,,,0.00,VWS V14.00,2013-12-09 14:59:00,
2013-12-09 10:04:00,28.7,28.7,30.21,NE,50,0.0,0.0,100,0.00,,,0.00,VWS V14.00,2013-12-09 15:04:00,
2013-12-09 10:09:00,28.7,28.7,30.22,NE,50,0.0,0.0,100,0.00,,,0.00,VWS V14.00,2013-12-09 15:09:00,
2013-12-09 10:14:00,28.8,28.8,30.20,NE,50,0.0,0.0,100,0.00,,,0.00,VWS V14.00,2013-12-09 15:14:00,
2013-12-09 10:19:00,28.7,28.7,30.20,NE,50,0.0,0.0,100,0.00,,,0.00,VWS V14.00,2013-12-09 15:19:00,
2013-12-09 10:24:00,28.7,28.7,30.19,NE,50,0.0,0.0,100,0.00,,,0.00,VWS V14.00,2013-12-09 15:24:00,
2013-12-09 10:29:00,28.9,28.9,30.18,NE,50,0.0,0.0,100,0.00,,,0.00,VWS V14.00,2013-12-09 15:29:00,
2013-12-09 10:34:00,29.0,29.0,30.17,NE,50,0.0,0.0,100,0.00,,,0.00,VWS V14.00,2013-12-09 15:34:00,
2013-12-09 10:39:00,29.2,29.2,30.18,NE,50,0.0,0.0,100,0.00,,,0.00,VWS V14.00,2013-12-09 15:39:00,
2013-12-09 10:44:00,29.2,29.2,30.17,NE,50,0.0,0.0,100,0.00,,,0.00,VWS V14.00,2013-12-09 15:44:00,
2013-12-09 10:49:00,29.2,29.2,30.16,NE,50,0.0,0.0,100,0.00,,,0.00,VWS V14.00,2013-12-09 15:49:00,
2013-12-09 10:54:00,29.3,29.3,30.15,NE,50,0.0,0.0,100,0.00,,,0.00,VWS V14.00,2013-12-09 15:54:00,
2013-12-09 10:59:00,29.3,29.3,30.15,NE,50,0.0,0.0,100,0.00,,,0.00,VWS V14.00,2013-12-09 15:59:00,
2013-12-09 11:04:00,29.5,29.5,30.15,NE,50,0.0,0.0,100,0.00,,,0.00,VWS V14.00,2013-12-09 16:04:00,
2013-12-09 11:09:00,29.8,29.8,30.14,NE,50,0.0,0.0,100,0.00,,,0.00,VWS V14.00,2013-12-09 16:09:00,
2013-12-09 11:14:00,30.0,30.0,30.14,NE,50,0.0,0.0,100,0.00,,,0.00,VWS V14.00,2013-12-09 16:14:00,
2013-12-09 11:19:00,30.1,30.1,30.13,NE,50,0.0,0.0,100,0.00,,,0.00,VWS V14.00,2013-12-09 16:19:00,
2013-12-09 11:24:00,30.1,30.1,30.12,NE,50,0.0,0.0,100,0.00,,,0.00,VWS V14.00,2013-12-09 16:24:00,
2013-12-09 11:29:00,30.3,30.3,30.11,NE,50,0.0,0.0,100,0.00,,,0.00,VWS V14.00,2013-12-09 16:29:00,
2013-12-09 11:34:00,30.4,30.4,30.11,NE,50,0.0,0.0,100,0.00,,,0.00,VWS V14.00,2013-12-09 16:34:00,
2013-12-09 11:39:00,30.5,30.5,30.11,NE,50,0.0,0.0,100,0.00,,,0.00,VWS V14.00,2013-12-09 16:39:00,
2013-12-09 11:44:00,30.5,30.5,30.11,NE,50,0.0,0.0,100,0.00,,,0.00,VWS V14.00,2013-12-09 16:44:00,
2013-12-09 11:49:00,30.5,30.5,30.11,NE,50,0.0,0.0,100,0.00,,,0.00,VWS V14.00,2013-12-09 16:49:00,
2013-12-09 11:54:00,30.6,30.6,30.10,NE,50,0.0,0.0,100,0.00,,,0.00,VWS V14.00,2013-12-09 16:54:00,
2013-12-09 11:59:00,30.5,30.5,30.09,NE,50,0.0,0.0,100,0.00,,,0.00,VWS V14.00,2013-12-09 16:59:00,
2013-12-09 12:04:00,30.5,30.5,30.10,NE,50,0.0,0.0,100,0.00,,,0.00,VWS V14.00,2013-12-09 17:04:00,
2013-12-09 12:09:00,30.7,30.7,30.08,NE,50,0.0,0.0,100,0.00,,-RA,0.00,VWS V14.00,2013-12-09 17:09:00,
2013-12-09 12:14:00,30.7,30.7,30.07,NE,50,0.0,0.0,100,0.00,,-RA,0.00,VWS V14.00,2013-12-09 17:14:00,
2013-12-09 12:19:00,30.9,30.9,30.06,NE,50,0.0,0.0,100,0.00,,-RA,0.00,VWS V14.00,2013-12-09 17:19:00,
2013-12-09 12:24:00,31.1,31.1,30.06,NE,50,0.0,0.0,100,0.00,,-RA,0.00,VWS V14.00,2013-12-09 17:24:00,
2013-12-09 12:29:00,31.1,31.1,30.05,NE,50,0.0,0.0,100,0.00,,-RA,0.00,VWS V14.00,2013-12-09 17:29:00,
2013-12-09 12:34:00,31.3,31.3,30.05,NE,50,0.0,0.0,100,0.00,,-RA,0.00,VWS V14.00,2013-12-09 17:34:00,
2013-12-09 12:39:00,31.3,31.3,30.04,NE,50,0.0,0.0,100,0.00,,-RA,0.00,VWS V14.00,2013-12-09 17:39:00,
2013-12-09 12:44:00,31.4,31.4,30.03,NE,50,0.0,0.0,100,0.00,,-RA,0.00,VWS V14.00,2013-12-09 17:44:00,
2013-12-09 12:49:00,31.4,31.4,30.03,NE,50,0.0,0.0,100,0.00,,-RA,0.00,VWS V14.00,2013-12-09 17:49:00,
2013-12-09 12:54:00,31.3,31.3,30.03,NE,50,0.0,0.0,100,0.00,,-RA,0.00,VWS V14.00,2013-12-09 17:54:00,
2013-12-09 12:59:00,31.1,31.1,30.02,NE,50,0.0,0.0,100,0.00,,-RA,0.00,VWS V14.00,2013-12-09 17:59:00,
2013-12-09 13:04:00,31.3,31.3,30.03,NE,50,0.0,0.0,100,0.00,,,0.00,VWS V14.00,2013-12-09 18:04:00,
2013-12-09 13:09:00,31.3,31.3,30.02,NE,50,0.0,0.0,100,0.00,,,0.00,VWS V14.00,2013-12-09 18:09:00,
2013-12-09 13:14:00,31.3,31.3,30.03,NE,50,0.0,0.0,100,0.00,,,0.00,VWS V14.00,2013-12-09 18:14:00,
2013-12-09 13:19:00,31.3,31.3,30.01,NE,50,0.0,0.0,100,0.00,,,0.00,VWS V14.00,2013-12-09 18:19:00,
2013-12-09 13:24:00,31.3,31.3,30.01,NE,50,0.0,0.0,100,0.00,,,0.00,VWS V14.00,2013-12-09 18:24:00,
2013-12-09 13:29:00,31.3,31.3,30.00,NE,50,0.0,0.0,100,0.00,,,0.00,VWS V14.00,2013-12-09 18:29:00,
2013-12-09 13:34:00,31.4,31.4,30.01,NE,50,0.0,0.0,100,0.00,,,0.00,VWS V14.00,2013-12-09 18:34:00,
2013-12-09 13:39:00,31.4,31.4,30.00,NE,50,0.0,0.0,100,0.00,,,0.00,VWS V14.00,2013-12-09 18:39:00,
2013-12-09 13:44:00,31.6,31.6,30.00,NE,50,0.0,0.0,100,0.00,,,0.00,VWS V14.00,2013-12-09 18:44:00,
2013-12-09 13:49:00,31.4,31.4,29.99,NE,50,0.0,0.0,100,0.00,,,0.00,VWS V14.00,2013-12-09 18:49:00,
2013-12-09 13:54:00,31.4,31.4,29.99,NE,50,0.0,0.0,100,0.00,,,0.00,VWS V14.00,2013-12-09 18:54:00,
2013-12-09 13:59:00,31.6,31.6,29.98,NE,50,0.0,0.0,100,0.00,,,0.00,VWS V14.00,2013-12-09 18:59:00,
2013-12-09 14:04:00,31.6,31.6,29.98,NE,50,0.0,0.0,100,0.00,,-RA,0.00,VWS V14.00,2013-12-09 19:04:00,
2013-12-09 14:09:00,31.6,31.6,29.97,NE,50,0.0,0.0,100,0.00,,-RA,0.00,VWS V14.00,2013-12-09 19:09:00,
2013-12-09 14:14:00,31.6,31.6,29.97,NE,50,0.0,0.0,100,0.00,,-RA,0.00,VWS V14.00,2013-12-09 19:14:00,
2013-12-09 14:19:00,31.6,31.6,29.97,NE,50,0.0,0.0,100,0.00,,-RA,0.00,VWS V14.00,2013-12-09 19:19:00,
2013-12-09 14:24:00,31.6,31.6,29.97,NE,50,0.0,0.0,100,0.00,,-RA,0.00,VWS V14.00,2013-12-09 19:24:00,
2013-12-09 14:29:00,31.6,31.6,29.97,NE,50,0.0,0.0,100,0.00,,-RA,0.00,VWS V14.00,2013-12-09 19:29:00,
2013-12-09 14:34:00,31.6,31.6,29.97,NE,50,0.0,0.0,100,0.00,,-RA,0.00,VWS V14.00,2013-12-09 19:34:00,
2013-12-09 14:39:00,31.6,31.6,29.97,NE,50,0.0,0.0,100,0.00,,-RA,0.00,VWS V14.00,2013-12-09 19:39:00,
2013-12-09 14:44:00,31.6,31.6,29.96,NE,50,0.0,0.0,100,0.00,,-RA,0.00,VWS V14.00,2013-12-09 19:44:00,
2013-12-09 14:49:00,31.6,31.6,29.97,NE,50,0.0,0.0,100,0.00,,-RA,0.00,VWS V14.00,2013-12-09 19:49:00,
2013-12-09 14:54:00,31.6,31.6,29.96,NE,50,0.0,0.0,100,0.00,,-RA,0.00,VWS V14.00,2013-12-09 19:54:00,
2013-12-09 14:59:00,31.6,31.6,29.96,NE,50,0.0,0.0,100,0.00,,-RA,0.00,VWS V14.00,2013-12-09 19:59:00,
2013-12-09 15:04:00,31.6,31.6,29.96,NE,50,0.0,0.0,100,0.00,,,0.00,VWS V14.00,2013-12-09 20:04:00,
2013-12-09 15:09:00,31.6,31.6,29.96,NE,50,0.0,0.0,100,0.00,,,0.00,VWS V14.00,2013-12-09 20:09:00,
2013-12-09 15:14:00,31.6,31.6,29.95,NE,50,0.0,0.0,100,0.00,,,0.00,VWS V14.00,2013-12-09 20:14:00,
2013-12-09 15:19:00,31.6,31.6,29.95,NE,50,0.0,0.0,100,0.00,,,0.00,VWS V14.00,2013-12-09 20:19:00,
2013-12-09 15:24:00,31.6,31.6,29.96,NE,50,0.0,0.0,100,0.00,,,0.00,VWS V14.00,2013-12-09 20:24:00,
2013-12-09 15:29:00,31.7,31.7,29.95,NE,50,0.0,0.0,100,0.00,,,0.00,VWS V14.00,2013-12-09 20:29:00,
2013-12-09 15:34:00,31.7,31.7,29.95,NE,50,0.0,0.0,100,0.00,,,0.00,VWS V14.00,2013-12-09 20:34:00,
2013-12-09 15:39:00,31.7,31.7,29.95,NE,50,0.0,0.0,100,0.00,,,0.00,VWS V14.00,2013-12-09 20:39:00,
2013-12-09 15:44:00,31.6,31.6,29.93,NE,50,0.0,0.0,100,0.00,,,0.00,VWS V14.00,2013-12-09 20:44:00,
2013-12-09 15:49:00,31.6,31.6,29.93,NE,50,0.0,0.0,100,0.00,,,0.00,VWS V14.00,2013-12-09 20:49:00,
2013-12-09 15:54:00,31.6,31.6,29.93,NE,50,0.0,0.0,100,0.00,,,0.00,VWS V14.00,2013-12-09 20:54:00,
2013-12-09 15:59:00,31.6,31.6,29.94,NE,50,0.0,0.0,100,0.00,,,0.00,VWS V14.00,2013-12-09 20:59:00,
2013-12-09 16:04:00,31.6,31.6,29.93,NE,50,0.0,0.0,100,0.00,,,0.00,VWS V14.00,2013-12-09 21:04:00,
2013-12-09 16:09:00,31.4,31.4,29.93,NE,50,0.0,0.0,100,0.00,,,0.00,VWS V14.00,2013-12-09 21:09:00,
2013-12-09 16:14:00,31.6,31.6,29.94,NE,50,0.0,0.0,100,0.00,,,0.00,VWS V14.00,2013-12-09 21:14:00,
2013-12-09 16:19:00,31.4,31.4,29.93,NE,50,0.0,0.0,100,0.00,,,0.00,VWS V14.00,2013-12-09 21:19:00,
2013-12-09 16:24:00,31.6,31.6,29.93,NE,50,0.0,0.0,100,0.00,,,0.00,VWS V14.00,2013-12-09 21:24:00,
2013-12-09 16:29:00,31.6,31.6,29.93,NE,50,0.0,0.0,100,0.00,,,0.00,VWS V14.00,2013-12-09 21:29:00,
2013-12-09 16:34:00,31.4,31.4,29.93,NE,50,0.0,0.0,100,0.00,,,0.00,VWS V14.00,2013-12-09 21:34:00,
2013-12-09 16:39:00,31.4,31.4,29.92,NE,50,0.0,0.0,100,0.00,,,0.00,VWS V14.00,2013-12-09 21:39:00,
2013-12-09 16:44:00,31.4,31.4,29.92,NE,50,0.0,0.0,100,0.00,,,0.00,VWS V14.00,2013-12-09 21:44:00,
2013-12-09 16:49:00,31.4,31.4,29.91,NE,50,0.0,0.0,100,0.00,,,0.00,VWS V14.00,2013-12-09 21:49:00,
2013-12-09 16:54:00,31.6,31.6,29.92,NE,50,0.0,0.0,100,0.00,,,0.00,VWS V14.00,2013-12-09 21:54:00,
2013-12-09 16:59:00,31.6,31.6,29.92,NE,50,0.0,0.0,100,0.00,,,0.00,VWS V14.00,2013-12-09 21:59:00,
2013-12-09 17:04:00,31.6,31.6,29.91,NE,50,0.0,0.0,100,0.00,,,0.00,VWS V14.00,2013-12-09 22:04:00,
2013-12-09 17:09:00,31.6,31.6,29.91,NE,50,0.0,0.0,100,0.00,,,0.00,VWS V14.00,2013-12-09 22:09:00,
2013-12-09 17:14:00,31.6,31.6,29.91,NE,50,0.0,0.0,100,0.00,,,0.00,VWS V14.00,2013-12-09 22:14:00,
2013-12-09 17:19:00,31.4,31.4,29.90,NE,50,0.0,0.0,100,0.00,,,0.00,VWS V14.00,2013-12-09 22:19:00,
2013-12-09 17:24:00,31.4,31.4,29.89,NE,50,0.0,0.0,100,0.00,,,0.00,VWS V14.00,2013-12-09 22:24:00,
2013-12-09 17:29:00,31.4,31.4,29.90,NE,50,0.0,0.0,100,0.00,,,0.00,VWS V14.00,2013-12-09 22:29:00,
2013-12-09 17:34:00,31.6,31.6,29.89,NE,50,0.0,0.0,100,0.00,,,0.00,VWS V14.00,2013-12-09 22:34:00,
2013-12-09 17:39:00,31.6,31.6,29.90,NE,50,0.0,0.0,100,0.00,,,0.00,VWS V14.00,2013-12-09 22:39:00,
2013-12-09 17:44:00,31.6,31.6,29.89,NE,50,0.0,0.0,100,0.00,,,0.00,VWS V14.00,2013-12-09 22:44:00,
2013-12-09 17:49:00,31.6,31.6,29.90,NE,50,0.0,0.0,100,0.00,,,0.00,VWS V14.00,2013-12-09 22:49:00,
2013-12-09 17:54:00,31.6,31.6,29.90,NE,50,0.0,0.0,100,0.00,,,0.00,VWS V14.00,2013-12-09 22:54:00,
2013-12-09 17:59:00,31.6,31.6,29.90,NE,50,0.0,0.0,100,0.00,,,0.00,VWS V14.00,2013-12-09 22:59:00,
2013-12-09 18:04:00,31.6,31.6,29.90,NE,50,0.0,0.0,100,0.00,,,0.00,VWS V14.00,2013-12-09 23:04:00,
2013-12-09 18:09:00,31.6,31.6,29.89,NE,50,0.0,0.0,100,0.00,,,0.00,VWS V14.00,2013-12-09 23:09:00,
2013-12-09 18:14:00,31.6,31.6,29.90,NE,50,0.0,0.0,100,0.00,,,0.00,VWS V14.00,2013-12-09 23:14:00,
2013-12-09 18:19:00,31.6,31.6,29.90,NE,50,0.0,0.0,100,0.00,,,0.00,VWS V14.00,2013-12-09 23:19:00,
2013-12-09 18:24:00,31.7,31.7,29.89,NE,50,0.0,0.0,100,0.00,,,0.00,VWS V14.00,2013-12-09 23:24:00,
2013-12-09 18:29:00,31.7,31.7,29.90,NE,50,0.0,0.0,100,0.00,,,0.00,VWS V14.00,2013-12-09 23:29:00,
2013-12-09 18:34:00,31.7,31.7,29.89,NE,50,0.0,0.0,100,0.00,,,0.00,VWS V14.00,2013-12-09 23:34:00,
2013-12-09 18:39:00,31.7,31.7,29.89,NE,50,0.0,0.0,100,0.00,,,0.00,VWS V14.00,2013-12-09 23:39:00,
2013-12-09 18:44:00,31.7,31.7,29.89,NE,50,0.0,0.0,100,0.00,,,0.00,VWS V14.00,2013-12-09 23:44:00,
2013-12-09 18:49:00,31.7,31.7,29.89,NE,50,0.0,0.0,100,0.00,,,0.00,VWS V14.00,2013-12-09 23:49:00,
2013-12-09 18:54:00,31.7,31.7,29.89,NE,50,0.0,0.0,100,0.00,,,0.00,VWS V14.00,2013-12-09 23:54:00,
2013-12-09 18:59:00,31.7,31.7,29.90,NE,50,0.0,0.0,100,0.00,,,0.00,VWS V14.00,2013-12-09 23:59:00,
2013-12-09 19:04:00,31.7,31.7,29.91,NE,50,0.0,0.0,100,0.00,,,0.00,VWS V14.00,2013-12-10 00:04:00,
2013-12-09 19:09:00,31.7,31.7,29.91,NE,50,0.0,0.0,100,0.00,,,0.00,VWS V14.00,2013-12-10 00:09:00,
2013-12-09 19:14:00,31.7,31.7,29.91,NE,50,0.0,0.0,100,0.00,,,0.00,VWS V14.00,2013-12-10 00:14:00,
2013-12-09 19:19:00,31.7,31.7,29.90,NE,50,0.0,0.0,100,0.00,,,0.00,VWS V14.00,2013-12-10 00:19:00,
2013-12-09 19:24:00,31.9,31.9,29.90,NE,49,0.0,4.0,100,0.00,,,0.00,VWS V14.00,2013-12-10 00:24:00,
2013-12-09 19:29:00,31.9,31.9,29.91,NE,49,0.0,4.0,100,0.00,,,0.00,VWS V14.00,2013-12-10 00:29:00,
2013-12-09 19:34:00,31.9,31.9,29.89,NE,49,0.0,1.0,100,0.00,,,0.00,VWS V14.00,2013-12-10 00:34:00,
2013-12-09 19:39:00,31.9,31.9,29.89,NE,49,0.0,1.0,100,0.00,,,0.00,VWS V14.00,2013-12-10 00:39:00,
2013-12-09 19:44:00,31.9,31.9,29.89,NE,49,0.0,1.0,100,0.00,,,0.00,VWS V14.00,2013-12-10 00:44:00,
2013-12-09 19:49:00,31.9,31.9,29.90,NE,49,0.0,3.0,100,0.00,,,0.00,VWS V14.00,2013-12-10 00:49:00,
2013-12-09 19:54:00,31.9,31.9,29.89,NE,49,0.0,3.0,100,0.00,,,0.00,VWS V14.00,2013-12-10 00:54:00,
2013-12-09 19:59:00,31.9,31.9,29.89,NE,49,0.0,3.0,100,0.00,,,0.00,VWS V14.00,2013-12-10 00:59:00,
2013-12-09 20:04:00,31.9,31.9,29.89,NE,49,0.0,0.0,100,0.00,,,0.00,VWS V14.00,2013-12-10 01:04:00,
2013-12-09 20:09:00,31.9,31.9,29.90,NE,49,0.0,4.0,100,0.00,,,0.00,VWS V14.00,2013-12-10 01:09:00,
2013-12-09 20:14:00,32.0,32.0,29.90,NE,49,0.0,4.0,100,0.00,,,0.00,VWS V14.00,2013-12-10 01:14:00,
2013-12-09 20:19:00,32.0,32.0,29.89,NE,49,0.0,4.0,100,0.00,,,0.00,VWS V14.00,2013-12-10 01:19:00,
2013-12-09 20:24:00,31.9,31.9,29.91,NE,48,0.0,4.0,100,0.00,,,0.00,VWS V14.00,2013-12-10 01:24:00,
2013-12-09 20:29:00,31.9,31.9,29.90,NE,49,0.0,4.0,100,0.00,,,0.00,VWS V14.00,2013-12-10 01:29:00,
2013-12-09 20:34:00,32.0,32.0,29.91,NE,49,0.0,0.0,100,0.00,,,0.00,VWS V14.00,2013-12-10 01:34:00,
2013-12-09 20:39:00,32.0,32.0,29.90,NE,49,0.0,0.0,100,0.00,,,0.00,VWS V14.00,2013-12-10 01:39:00,
2013-12-09 20:44:00,31.9,31.9,29.90,NE,49,0.0,0.0,100,0.00,,,0.00,VWS V14.00,2013-12-10 01:44:00,
2013-12-09 20:49:00,32.0,32.0,29.90,NE,49,0.0,0.0,100,0.00,,,0.00,VWS V14.00,2013-12-10 01:49:00,
2013-12-09 20:54:00,32.0,32.0,29.89,NE,49,0.0,0.0,100,0.00,,,0.00,VWS V14.00,2013-12-10 01:54:00,
2013-12-09 20:59:00,32.2,32.2,29.90,NE,49,0.0,0.0,100,0.00,,,0.00,VWS V14.00,2013-12-10 01:59:00,
2013-12-09 21:04:00,32.3,32.3,29.91,NE,49,0.0,0.0,100,0.00,,,0.00,VWS V14.00,2013-12-10 02:04:00,
2013-12-09 21:09:00,32.3,32.3,29.90,NE,49,0.0,0.0,100,0.00,,,0.00,VWS V14.00,2013-12-10 02:09:00,
2013-12-09 21:14:00,32.3,32.3,29.90,NE,49,0.0,0.0,100,0.00,,,0.00,VWS V14.00,2013-12-10 02:14:00,
2013-12-09 21:19:00,32.3,32.3,29.90,NE,49,0.0,3.0,100,0.00,,,0.00,VWS V14.00,2013-12-10 02:19:00,
2013-12-09 21:24:00,32.3,32.3,29.89,NE,49,0.0,3.0,100,0.00,,,0.00,VWS V14.00,2013-12-10 02:24:00,
2013-12-09 21:29:00,32.3,32.3,29.89,NE,49,1.0,3.0,100,0.00,,,0.00,VWS V14.00,2013-12-10 02:29:00,
2013-12-09 21:34:00,32.8,32.8,29.89,NE,49,0.0,2.0,100,0.00,,,0.00,VWS V14.00,2013-12-10 02:34:00,
2013-12-09 21:39:00,33.0,33.0,29.89,NE,48,1.0,2.0,100,0.00,,,0.00,VWS V14.00,2013-12-10 02:39:00,
2013-12-09 21:44:00,33.1,33.1,29.90,NE,48,0.0,3.0,100,0.00,,,0.00,VWS V14.00,2013-12-10 02:44:00,
2013-12-09 21:49:00,33.1,33.1,29.90,NE,48,0.0,3.0,100,0.00,,,0.00,VWS V14.00,2013-12-10 02:49:00,
2013-12-09 21:54:00,33.1,33.1,29.90,NE,48,0.0,3.0,100,0.00,,,0.00,VWS V14.00,2013-12-10 02:54:00,
2013-12-09 21:59:00,33.0,33.0,29.90,NE,48,0.0,3.0,100,0.00,,,0.00,VWS V14.00,2013-12-10 02:59:00,
2013-12-09 22:04:00,32.8,32.8,29.90,NE,48,0.0,1.0,100,0.00,,,0.00,VWS V14.00,2013-12-10 03:04:00,
2013-12-09 22:09:00,32.7,32.7,29.91,NE,48,0.0,1.0,100,0.00,,,0.00,VWS V14.00,2013-12-10 03:09:00,
2013-12-09 22:14:00,32.6,32.6,29.92,NE,48,0.0,1.0,100,0.00,,,0.00,VWS V14.00,2013-12-10 03:14:00,
2013-12-09 22:19:00,32.4,32.4,29.90,NE,48,0.0,1.0,100,0.00,,,0.00,VWS V14.00,2013-12-10 03:19:00,
2013-12-09 22:24:00,32.3,32.3,29.92,NE,48,0.0,1.0,100,0.00,,,0.00,VWS V14.00,2013-12-10 03:24:00,
2013-12-09 22:29:00,32.3,32.3,29.91,NE,48,0.0,1.0,100,0.00,,,0.00,VWS V14.00,2013-12-10 03:29:00,
2013-12-09 22:34:00,32.3,32.3,29.91,NE,48,0.0,1.0,100,0.00,,,0.00,VWS V14.00,2013-12-10 03:34:00,
2013-12-09 22:39:00,32.3,32.3,29.92,NE,48,0.0,2.0,100,0.00,,,0.00,VWS V14.00,2013-12-10 03:39:00,
2013-12-09 22:44:00,32.3,32.3,29.91,NE,48,0.0,2.0,100,0.00,,,0.00,VWS V14.00,2013-12-10 03:44:00,
2013-12-09 22:49:00,32.2,32.2,29.92,NE,48,0.0,2.0,100,0.00,,,0.00,VWS V14.00,2013-12-10 03:49:00,
2013-12-09 22:54:00,32.0,32.0,29.91,NE,48,2.0,2.0,100,0.00,,,0.00,VWS V14.00,2013-12-10 03:54:00,
2013-12-09 22:59:00,32.2,32.2,29.90,NE,48,1.0,3.0,100,0.00,,,0.00,VWS V14.00,2013-12-10 03:59:00,
2013-12-09 23:04:00,32.2,32.2,29.90,NE,48,1.0,2.0,100,0.00,,CLR,0.00,VWS V14.00,2013-12-10 04:04:00,
2013-12-09 23:09:00,32.2,32.2,29.90,NE,48,2.0,3.0,100,0.00,,CLR,0.00,VWS V14.00,2013-12-10 04:09:00,
2013-12-09 23:14:00,32.2,32.2,29.91,NE,48,2.0,3.0,100,0.00,,CLR,0.00,VWS V14.00,2013-12-10 04:14:00,
2013-12-09 23:19:00,32.1,32.1,29.90,NE,48,1.0,4.0,100,0.00,,CLR,0.00,VWS V14.00,2013-12-10 04:19:00,
2013-12-09 23:24:00,32.2,32.2,29.89,NE,48,2.0,4.0,100,0.00,,CLR,0.00,VWS V14.00,2013-12-10 04:24:00,
2013-12-09 23:29:00,32.3,32.3,29.89,NE,49,1.0,4.0,100,0.00,,CLR,0.00,VWS V14.00,2013-12-10 04:29:00,
2013-12-09 23:34:00,32.3,32.3,29.89,NE,48,2.0,3.0,100,0.00,,CLR,0.00,VWS V14.00,2013-12-10 04:34:00,
2013-12-09 23:39:00,32.3,32.3,29.90,NE,52,0.0,4.0,100,0.00,,CLR,0.00,VWS V14.00,2013-12-10 04:39:00,
2013-12-09 23:44:00,32.3,32.3,29.90,NE,52,0.0,4.0,100,0.00,,CLR,0.00,VWS V14.00,2013-12-10 04:44:00,
2013-12-09 23:49:00,32.3,32.3,29.90,NE,52,2.0,4.0,100,0.00,,CLR,0.00,VWS V14.00,2013-12-10 04:49:00,
2013-12-09 23:54:00,32.1,32.1,29.89,NE,52,2.0,4.0,100,0.00,,CLR,0.00,VWS V14.00,2013-12-10 04:54:00,
2013-12-09 23:59:00,32.2,32.2,29.90,SW,215,2.0,5.0,100,0.00,,CLR,0.00,VWS V14.00,2013-12-10 04:59:00,